| time (UTC) | temp C | wind direction | speed KPH | gust KPH | rain 1hr cm | rain 24hr cm | rain mn cm | humidity % | barometer mb |
| 20260906231019 | 25 | 56 | 1.6 | 9.7 | 0.00 | 0.03 | 0.00 | 42 | 1023.5 |
| 20260906230004 | 25 | 60 | 6.4 | 16.1 | 0.00 | 0.03 | 0.00 | 43 | 1023.5 |
| 20260906224935 | 25 | 322 | 4.8 | 16.1 | 0.00 | 0.03 | 0.00 | 43 | 1023.5 |
| 20260906224324 | 25 | 322 | 3.2 | 11.3 | 0.00 | 0.03 | 0.00 | 44 | 1023.7 |
| 20260906223958 | 25 | 72 | 3.2 | 9.7 | 0.00 | 0.03 | 0.00 | 43 | 1023.6 |
| 20260906221932 | 24 | 332 | 1.6 | 8.0 | 0.00 | 0.03 | 0.00 | 44 | 1023.9 |
| 20260906220931 | 24 | 96 | 1.6 | 6.4 | 0.00 | 0.03 | 0.00 | 44 | 1023.9 |
| 20260906215934 | 24 | 36 | 1.6 | 4.8 | 0.00 | 0.03 | 0.00 | 44 | 1024.0 |
| 20260906214924 | 25 | 94 | 1.6 | 6.4 | 0.00 | 0.03 | 0.00 | 42 | 1024.2 |
| 20260906213925 | 25 | 39 | 3.2 | 9.7 | 0.00 | 0.03 | 0.00 | 42 | 1024.4 |
| 20260906213356 | 25 | 39 | 3.2 | 14.5 | 0.00 | 0.03 | 0.00 | 42 | 1024.4 |
| 20260906211924 | 25 | 70 | 3.2 | 11.3 | 0.00 | 0.03 | 0.00 | 40 | 1024.2 |
| 20260906210923 | 26 | 109 | 4.8 | 22.5 | 0.00 | 0.03 | 0.00 | 38 | 1024.2 |
| 20260906205924 | 26 | 12 | 4.8 | 14.5 | 0.00 | 0.03 | 0.00 | 38 | 1024.4 |
| 20260906204924 | 27 | 56 | 3.2 | 14.5 | 0.00 | 0.03 | 0.00 | 36 | 1024.6 |
| 20260906204403 | 26 | 53 | 3.2 | 14.5 | 0.00 | 0.03 | 0.00 | 36 | 1024.9 |
| 20260906203359 | 26 | 86 | 6.4 | 16.1 | 0.00 | 0.03 | 0.00 | 36 | 1024.9 |
| 20260906201922 | 26 | 125 | 4.8 | 12.9 | 0.00 | 0.03 | 0.00 | 38 | 1024.9 |
| 20260906200923 | 26 | 39 | 6.4 | 17.7 | 0.00 | 0.03 | 0.00 | 38 | 1025.1 |
| 20260906195922 | 26 | 155 | 6.4 | 20.9 | 0.00 | 0.03 | 0.00 | 37 | 1025.1 |
| 20260906194920 | 26 | 65 | 3.2 | 14.5 | 0.00 | 0.03 | 0.00 | 36 | 1025.1 |
| 20260906193921 | 26 | 42 | 6.4 | 16.1 | 0.00 | 0.03 | 0.00 | 37 | 1025.1 |
| 20260906193347 | 25 | 75 | 4.8 | 12.9 | 0.00 | 0.03 | 0.00 | 37 | 1025.0 |
| 20260906191853 | 26 | 149 | 6.4 | 20.9 | 0.00 | 0.03 | 0.00 | 37 | 1025.2 |
| 20260906190852 | 26 | 22 | 3.2 | 17.7 | 0.00 | 0.03 | 0.00 | 37 | 1025.4 |
| 20260906185852 | 26 | 47 | 4.8 | 17.7 | 0.00 | 0.03 | 0.00 | 36 | 1025.4 |
| 20260906184852 | 25 | 23 | 6.4 | 14.5 | 0.00 | 0.03 | 0.00 | 37 | 1025.5 |
| 20260906184337 | 25 | 54 | 6.4 | 17.7 | 0.00 | 0.03 | 0.00 | 37 | 1025.8 |
| 20260906182851 | 25 | 15 | 4.8 | 19.3 | 0.00 | 0.03 | 0.00 | 38 | 1025.9 |
| 20260906181850 | 25 | 36 | 4.8 | 12.9 | 0.00 | 0.03 | 0.00 | 38 | 1025.9 |
| 20260906180850 | 25 | 49 | 6.4 | 16.1 | 0.00 | 0.03 | 0.00 | 38 | 1026.1 |
| 20260906175850 | 25 | 84 | 4.8 | 17.7 | 0.00 | 0.03 | 0.00 | 37 | 1026.4 |
| 20260906175328 | 25 | 105 | 4.8 | 12.9 | 0.00 | 0.03 | 0.00 | 38 | 1026.4 |
| 20260906173851 | 25 | 119 | 4.8 | 16.1 | 0.00 | 0.03 | 0.00 | 39 | 1026.6 |
| 20260906172850 | 25 | 51 | 3.2 | 14.5 | 0.00 | 0.03 | 0.00 | 38 | 1026.6 |
| 20260906172333 | 25 | 39 | 4.8 | 17.7 | 0.00 | 0.03 | 0.00 | 38 | 1026.9 |
| 20260906170847 | 25 | 158 | 3.2 | 11.3 | 0.00 | 0.03 | 0.00 | 38 | 1027.0 |
| 20260906170808 | 25 | 116 | 3.2 | 12.9 | 0.00 | 0.03 | 0.00 | 39 | 1027.0 |
| 20260906164848 | 25 | 136 | 1.6 | 6.4 | 0.00 | 0.03 | 0.00 | 37 | 1027.1 |
| 20260906164809 | 25 | 88 | 1.6 | 12.9 | 0.00 | 0.03 | 0.00 | 35 | 1027.1 |
| 20260906162848 | 25 | 129 | 1.6 | 8.0 | 0.00 | 0.03 | 0.00 | 36 | 1027.1 |
| 20260906161848 | 24 | 91 | 3.2 | 9.7 | 0.00 | 0.03 | 0.00 | 37 | 1027.1 |
| 20260906160832 | 24 | 191 | 1.6 | 4.8 | 0.00 | 0.03 | 0.00 | 38 | 1027.1 |
| 20260906155826 | 24 | 136 | 0.0 | 4.8 | 0.00 | 0.03 | 0.00 | 41 | 1027.1 |
| 20260906154826 | 23 | 117 | 1.6 | 4.8 | 0.00 | 0.03 | 0.00 | 40 | 1027.0 |
| 20260906153826 | 22 | 98 | 0.0 | 3.2 | 0.00 | 0.03 | 0.00 | 40 | 1027.1 |
| 20260906152826 | 22 | 23 | 0.0 | 4.8 | 0.00 | 0.03 | 0.00 | 41 | 1027.0 |
| 20260906151828 | 21 | 330 | 1.6 | 4.8 | 0.00 | 0.03 | 0.00 | 44 | 1027.0 |
| 20260906150826 | 21 | 321 | 4.8 | 6.4 | 0.00 | 0.03 | 0.00 | 45 | 1027.1 |
| 20260906150215 | 20 | 312 | 1.6 | 4.8 | 0.00 | 0.03 | 0.00 | 49 | 1027.3 |
| 20260906145841 | 21 | 321 | 0.0 | 11.3 | 0.00 | 0.03 | 0.00 | 45 | 1027.3 |
| 20260906144308 | 19 | 325 | 1.6 | 4.8 | 0.00 | 0.03 | 0.00 | 50 | 1027.1 |
| 20260906142822 | 18 | 314 | 1.6 | 6.4 | 0.00 | 0.03 | 0.00 | 54 | 1027.1 |
| 20260906141822 | 17 | 319 | 3.2 | 11.3 | 0.00 | 0.03 | 0.00 | 56 | 1027.1 |
| 20260906140823 | 17 | 311 | 3.2 | 11.3 | 0.00 | 0.03 | 0.00 | 56 | 1027.0 |
| 20260906135822 | 16 | 334 | 3.2 | 9.7 | 0.00 | 0.03 | 0.00 | 58 | 1027.0 |
| 20260906134822 | 16 | 257 | 1.6 | 6.4 | 0.00 | 0.03 | 0.00 | 60 | 1027.0 |
| 20260906133822 | 15 | 321 | 1.6 | 8.0 | 0.00 | 0.03 | 0.00 | 62 | 1027.0 |
| 20260906132820 | 13 | 269 | 0.0 | 1.6 | 0.00 | 0.03 | 0.00 | 69 | 1026.9 |
| 20260906131820 | 12 | 269 | 0.0 | 1.6 | 0.00 | 0.03 | 0.00 | 72 | 1026.8 |
| 20260906130821 | 12 | 269 | 0.0 | 0.0 | 0.00 | 0.03 | 0.00 | 73 | 1026.8 |
| 20260906125820 | 11 | 268 | 0.0 | 1.6 | 0.00 | 0.03 | 0.00 | 73 | 1026.8 |
| 20260906124819 | 11 | 269 | 0.0 | 1.6 | 0.00 | 0.03 | 0.00 | 73 | 1026.8 |
| 20260906123820 | 11 | 268 | 0.0 | 1.6 | 0.00 | 0.03 | 0.00 | 72 | 1026.6 |
| 20260906122821 | 11 | 269 | 0.0 | 0.0 | 0.00 | 0.03 | 0.00 | 73 | 1026.5 |
| 20260906121819 | 12 | 269 | 0.0 | 1.6 | 0.00 | 0.03 | 0.00 | 71 | 1026.6 |
| 20260906120817 | 12 | 268 | 0.0 | 1.6 | 0.00 | 0.03 | 0.00 | 71 | 1026.6 |
| 20260906120306 | 12 | 269 | 0.0 | 0.0 | 0.00 | 0.03 | 0.00 | 70 | 1026.6 |
| 20260906114818 | 12 | 268 | 0.0 | 1.6 | 0.00 | 0.03 | 0.00 | 71 | 1026.6 |
| 20260906113819 | 12 | 269 | 0.0 | 1.6 | 0.00 | 0.03 | 0.00 | 71 | 1026.6 |
| 20260906113259 | 11 | 269 | 0.0 | 1.6 | 0.00 | 0.03 | 0.00 | 73 | 1026.6 |
| 20260906111818 | 11 | 270 | 0.0 | 1.6 | 0.00 | 0.03 | 0.00 | 75 | 1026.5 |
| 20260906110818 | 11 | 291 | 0.0 | 1.6 | 0.00 | 0.03 | 0.00 | 75 | 1026.5 |
| 20260906110255 | 11 | 332 | 0.0 | 0.0 | 0.00 | 0.03 | 0.00 | 75 | 1026.5 |
| 20260906104814 | 11 | 332 | 0.0 | 0.0 | 0.00 | 0.03 | 0.00 | 74 | 1026.5 |
| 20260906103816 | 11 | 332 | 0.0 | 0.0 | 0.00 | 0.03 | 0.00 | 74 | 1026.5 |
| 20260906102800 | 12 | 331 | 0.0 | 1.6 | 0.00 | 0.03 | 0.00 | 72 | 1026.5 |
| 20260906101800 | 12 | 332 | 0.0 | 1.6 | 0.00 | 0.03 | 0.00 | 72 | 1026.4 |
| 20260906100800 | 12 | 252 | 0.0 | 1.6 | 0.00 | 0.03 | 0.00 | 73 | 1026.5 |
| 20260906095756 | 12 | 272 | 0.0 | 1.6 | 0.00 | 0.03 | 0.00 | 72 | 1026.5 |
| 20260906094756 | 12 | 273 | 0.0 | 1.6 | 0.00 | 0.03 | 0.00 | 74 | 1026.5 |
| 20260906093757 | 11 | 331 | 0.0 | 0.0 | 0.00 | 0.03 | 0.00 | 75 | 1026.8 |
| 20260906092758 | 12 | 332 | 0.0 | 0.0 | 0.00 | 0.03 | 0.00 | 72 | 1026.9 |
| 20260906091754 | 11 | 332 | 0.0 | 1.6 | 0.00 | 0.03 | 0.00 | 73 | 1026.9 |
| 20260906090754 | 12 | 332 | 0.0 | 1.6 | 0.00 | 0.03 | 0.00 | 74 | 1026.8 |
| 20260906085755 | 12 | 205 | 0.0 | 1.6 | 0.00 | 0.03 | 0.00 | 73 | 1026.6 |
| 20260906084754 | 12 | 205 | 0.0 | 1.6 | 0.00 | 0.03 | 0.00 | 71 | 1026.6 |
| 20260906083754 | 12 | 245 | 0.0 | 1.6 | 0.00 | 0.03 | 0.00 | 72 | 1026.5 |
| 20260906082754 | 12 | 245 | 0.0 | 1.6 | 0.00 | 0.03 | 0.00 | 71 | 1026.5 |
| 20260906081754 | 12 | 332 | 0.0 | 0.0 | 0.00 | 0.03 | 0.00 | 73 | 1026.6 |
| 20260906081220 | 13 | 332 | 0.0 | 1.6 | 0.00 | 0.03 | 0.00 | 72 | 1026.6 |
| 20260906080207 | 13 | 332 | 0.0 | 1.6 | 0.00 | 0.03 | 0.00 | 69 | 1026.8 |
| 20260906075209 | 14 | 282 | 0.0 | 1.6 | 0.00 | 0.03 | 0.00 | 66 | 1026.8 |
| 20260906073733 | 15 | 252 | 0.0 | 1.6 | 0.00 | 0.03 | 0.00 | 66 | 1026.8 |
| 20260906072727 | 14 | 263 | 0.0 | 3.2 | 0.00 | 0.03 | 0.00 | 66 | 1026.8 |
| 20260906071725 | 15 | 308 | 0.0 | 1.6 | 0.00 | 0.03 | 0.00 | 64 | 1026.9 |
| 20260906070725 | 15 | 248 | 1.6 | 4.8 | 0.00 | 0.03 | 0.00 | 63 | 1027.0 |
| 20260906065726 | 15 | 255 | 0.0 | 3.2 | 0.00 | 0.03 | 0.00 | 66 | 1026.9 |
| 20260906064726 | 14 | 309 | 1.6 | 8.0 | 0.00 | 0.03 | 0.00 | 69 | 1026.9 |
| 20260906063727 | 14 | 293 | 0.0 | 3.2 | 0.00 | 0.03 | 0.00 | 72 | 1027.0 |
| 20260906062727 | 14 | 308 | 0.0 | 1.6 | 0.00 | 0.03 | 0.00 | 72 | 1027.1 |
| 20260906061726 | 15 | 308 | 1.6 | 6.4 | 0.00 | 0.03 | 0.00 | 72 | 1027.3 |
| 20260906061643 | 15 | 314 | 0.0 | 3.2 | 0.00 | 0.03 | 0.00 | 71 | 1027.1 |
| 20260906055722 | 15 | 302 | 0.0 | 3.2 | 0.00 | 0.03 | 0.03 | 69 | 1027.4 |
| 20260906054722 | 16 | 283 | 3.2 | 8.0 | 0.00 | 0.03 | 0.03 | 66 | 1027.4 |
| 20260906053718 | 15 | 245 | 1.6 | 6.4 | 0.00 | 0.03 | 0.03 | 69 | 1027.6 |
| 20260906052718 | 16 | 248 | 1.6 | 6.4 | 0.03 | 0.03 | 0.03 | 71 | 1027.6 |
| 20260906051720 | 15 | 312 | 0.0 | 1.6 | 0.03 | 0.03 | 0.03 | 77 | 1027.9 |
| 20260906050718 | 15 | 312 | 0.0 | 3.2 | 0.03 | 0.03 | 0.03 | 76 | 1027.9 |
| 20260906045718 | 16 | 325 | 0.0 | 8.0 | 0.03 | 0.03 | 0.03 | 71 | 1027.8 |
| 20260906045156 | 17 | 285 | 1.6 | 6.4 | 0.03 | 0.03 | 0.03 | 67 | 1027.8 |
| 20260906043718 | 19 | 167 | 1.6 | 6.4 | 0.03 | 0.03 | 0.03 | 58 | 1027.9 |
| 20260906042715 | 20 | 208 | 3.2 | 11.3 | 0.00 | 0.00 | 0.00 | 46 | 1027.4 |
| 20260906041714 | 20 | 212 | 3.2 | 9.7 | 0.00 | 0.00 | 0.00 | 48 | 1027.1 |
| 20260906040715 | 20 | 39 | 1.6 | 9.7 | 0.00 | 0.00 | 0.00 | 45 | 1027.1 |
| 20260906035711 | 20 | 305 | 3.2 | 17.7 | 0.00 | 0.00 | 0.00 | 44 | 1027.1 |
| 20260906034710 | 20 | 294 | 8.0 | 17.7 | 0.00 | 0.00 | 0.00 | 46 | 1027.0 |
| 20260906033710 | 20 | 316 | 11.3 | 17.7 | 0.00 | 0.00 | 0.00 | 45 | 1026.8 |
| 20260906032710 | 20 | 326 | 9.7 | 17.7 | 0.00 | 0.00 | 0.00 | 43 | 1026.8 |
| 20260906032134 | 20 | 304 | 6.4 | 14.5 | 0.00 | 0.00 | 0.00 | 41 | 1026.8 |
| 20260906030651 | 21 | 345 | 0.0 | 4.8 | 0.00 | 0.00 | 0.00 | 40 | 1026.5 |
| 20260906030623 | 21 | 319 | 1.6 | 6.4 | 0.00 | 0.00 | 0.00 | 39 | 1026.4 |
| 20260906024650 | 20 | 238 | 3.2 | 9.7 | 0.00 | 0.00 | 0.00 | 40 | 1026.3 |
| 20260906023650 | 20 | 252 | 3.2 | 9.7 | 0.00 | 0.00 | 0.00 | 41 | 1026.1 |
| 20260906022650 | 20 | 279 | 1.6 | 8.0 | 0.00 | 0.00 | 0.00 | 43 | 1026.0 |
| 20260906021648 | 20 | 307 | 4.8 | 11.3 | 0.00 | 0.00 | 0.00 | 41 | 1025.9 |
| 20260906021135 | 21 | 319 | 3.2 | 8.0 | 0.00 | 0.00 | 0.00 | 39 | 1025.8 |
| 20260906015644 | 21 | 302 | 1.6 | 9.7 | 0.00 | 0.00 | 0.00 | 38 | 1025.9 |
| 20260906014644 | 21 | 312 | 1.6 | 6.4 | 0.00 | 0.00 | 0.00 | 38 | 1025.9 |
| 20260906013644 | 22 | 297 | 1.6 | 6.4 | 0.00 | 0.00 | 0.00 | 37 | 1025.8 |
| 20260906012645 | 22 | 268 | 3.2 | 8.0 | 0.00 | 0.00 | 0.00 | 36 | 1025.9 |
| 20260906011645 | 22 | 304 | 3.2 | 8.0 | 0.00 | 0.00 | 0.00 | 35 | 1025.8 |
| 20260906010643 | 23 | 277 | 3.2 | 11.3 | 0.00 | 0.00 | 0.00 | 34 | 1025.9 |
| 20260906005642 | 24 | 257 | 1.6 | 6.4 | 0.00 | 0.00 | 0.00 | 31 | 1025.8 |
| 20260906004642 | 24 | 36 | 0.0 | 6.4 | 0.00 | 0.00 | 0.00 | 30 | 1025.6 |
| 20260906004602 | 24 | 357 | 0.0 | 4.8 | 0.00 | 0.00 | 0.00 | 31 | 1025.6 |
| 20260906002642 | 25 | 36 | 0.0 | 6.4 | 0.00 | 0.00 | 0.00 | 30 | 1025.5 |
| 20260906001640 | 25 | 89 | 0.0 | 8.0 | 0.00 | 0.00 | 0.00 | 30 | 1025.5 |
| 20260906001117 | 25 | 58 | 1.6 | 6.4 | 0.00 | 0.00 | 0.00 | 29 | 1025.5 |
| 20260905235641 | 25 | 52 | 1.6 | 9.7 | 0.00 | 0.00 | 0.00 | 28 | 1025.4 |
| 20260905235138 | 26 | 106 | 1.6 | 9.7 | 0.00 | 0.00 | 0.00 | 28 | 1025.4 |
| 20260905233641 | 26 | 25 | 1.6 | 8.0 | 0.00 | 0.00 | 0.00 | 29 | 1025.2 |
| 20260905232641 | 26 | 143 | 1.6 | 8.0 | 0.00 | 0.00 | 0.00 | 29 | 1025.2 |
| 20260905231640 | 26 | 44 | 1.6 | 8.0 | 0.00 | 0.00 | 0.00 | 28 | 1025.2 |